Location: Prairie State College
(41.5244°N, 87.6382°W)
Time: 11:56:01
(UTC-06:00)

Amateur Radio Satellites - All Passes

Search period start: 06 December 2016 11:26
Search period end: 07 December 2016 11:26
Location: Prairie State College, 41.5244°N, 87.6382°W

Satellite Date Start Highest point End Downlink Frequencies (MHz)
Time Altitude Azimuth
QB50P2 06 Dec 11:27:07 11:30:46 27° 264° (W) 11:34:26 145.880/145.840
POLYITAN 1 06 Dec 11:27:34 11:31:16 28° 264° (W) 11:35:01 437.675
RS-15 06 Dec 11:30:33 11:39:53 24° 353° (N) 11:49:19 29.354- 29.394
DX 1 06 Dec 11:35:46 11:39:17 23° 95° (E) 11:42:48 434.975-435.025
QB50P1 06 Dec 11:41:04 11:44:19 21° 266° (W) 11:47:35 145.935-145.965
UKube-1 06 Dec 11:42:32 11:45:46 20° 94° (E) 11:48:59 .
DUCHIFAT 1 06 Dec 11:43:22 11:46:44 23° 266° (W) 11:50:07 145.980
GONETS M04 06 Dec 11:44:50 11:53:36 87° 82° (E) 12:02:22
SPROUT 06 Dec 11:53:53 11:58:03 46° 99° (E) 12:02:09 437.525
AO-7 06 Dec 11:59:49 12:02:36 12° 42° (NE) 12:05:24 29.400- 29.500
POPSAT HIP 1 06 Dec 12:04:15 12:06:06 12° 270° (W) 12:07:57 437.405
AO-85 06 Dec 12:04:41 12:05:12 10° 252° (WSW) 12:05:41 145.980
50 SAT 06 Dec 12:04:53 12:08:27 88° 103° (ESE) 12:12:02 437.505
ESTCUBE 1 06 Dec 12:17:33 12:21:22 28° 292° (WNW) 12:25:12 437.505/2401.250
Gurwin Techsat 1B 06 Dec 12:20:05 12:24:59 39° 69° (ENE) 12:29:55 435.225
Oscar 19 06 Dec 12:21:07 12:26:13 77° 75° (ENE) 12:31:23 437.125/150
AISAT 06 Dec 12:22:15 12:26:38 54° 287° (WNW) 12:30:59 437.250
JAS-2 06 Dec 12:24:10 12:25:42 11° 271° (W) 12:27:12 435.910
PCSat 06 Dec 12:25:45 12:30:28 30° 311° (NW) 12:35:13 145.827
BUGSAT 1 06 Dec 12:40:09 12:42:29 14° 269° (W) 12:44:50 437.445
CUBEBUG 1 06 Dec 12:48:15 12:51:37 21° 294° (WNW) 12:54:59 437.445
ITAMSAT 1 06 Dec 12:52:04 12:55:40 19° 62° (ENE) 12:59:16 435.822/435.867
BEESAT 3 06 Dec 12:57:06 13:00:51 38° 51° (NE) 13:04:35 437.485
VELOX 1 06 Dec 12:59:45 13:03:21 24° 293° (WNW) 13:06:57 145.980
Cosmos 2499 06 Dec 13:04:21 13:11:14 28° 279° (W) 13:17:45 435.465 / 435.565
DX 1 06 Dec 13:11:35 13:15:30 32° 291° (WNW) 13:19:23 434.975-435.025
TISAT 1 06 Dec 13:14:29 13:18:41 58° 101° (E) 13:22:49 437.305
UKube-1 06 Dec 13:17:55 13:21:53 36° 290° (WNW) 13:25:51 .
SWISSCUBE 06 Dec 13:19:29 13:22:07 15° 91° (E) 13:24:43 437.505
BEESAT 06 Dec 13:23:32 13:26:07 14° 91° (E) 13:28:39 436.000
BEESAT 2 06 Dec 13:27:00 13:30:46 36° 51° (NE) 13:34:31 435.950
SPROUT 06 Dec 13:30:54 13:33:35 16° 295° (WNW) 13:36:15 437.525
GONETS M04 06 Dec 13:43:43 13:49:12 19° 282° (WNW) 13:54:41
AO-7 06 Dec 13:45:31 13:53:25 51° 64° (ENE) 14:01:22 29.400- 29.500
RS-15 06 Dec 13:47:07 13:57:51 32° 28° (NNE) 14:08:24 29.354- 29.394
ITUPSAT 1 06 Dec 13:50:18 13:54:19 26° 95° (E) 13:58:18 437.325
Gurwin Techsat 1B 06 Dec 14:00:36 14:05:02 26° 265° (W) 14:09:28 435.225
Oscar 19 06 Dec 14:04:04 14:06:07 12° 271° (W) 14:08:10 437.125/150
AUBIESAT-1 06 Dec 14:13:53 14:18:09 36° 102° (ESE) 14:22:12 437.475
MOZHAYETS 4 06 Dec 14:25:47 14:28:27 15° 91° (E) 14:31:07
M-CUBED/EXP-1 PRIME 06 Dec 14:26:15 14:30:54 62° 105° (ESE) 14:35:21 437.505
ITAMSAT 1 06 Dec 14:29:33 14:34:40 57° 259° (W) 14:39:50 435.822/435.867
BEESAT 3 06 Dec 14:35:21 14:38:13 19° 248° (WSW) 14:41:04 437.485
BRITE-PL 06 Dec 14:47:52 14:48:24 10° 58° (ENE) 14:48:55 437.365/2234.400
TISAT 1 06 Dec 14:51:50 14:53:49 13° 297° (WNW) 14:55:47 437.305
KKS-1 06 Dec 14:53:47 14:55:24 12° 90° (E) 14:56:59 437.445
SWISSCUBE 06 Dec 14:55:35 15:00:16 59° 287° (WNW) 15:04:55 437.505
BEESAT 06 Dec 14:59:35 15:04:16 60° 287° (WNW) 15:08:55 436.000
BEESAT 2 06 Dec 15:05:18 15:08:20 20° 248° (WSW) 15:11:20 435.950
HORYU 2 06 Dec 15:06:13 15:08:34 14° 62° (ENE) 15:10:55 437.375
O/OREOS (USA 219) 06 Dec 15:14:50 15:19:08 42° 106° (ESE) 15:23:26 437.305
ITUPSAT 1 06 Dec 15:27:55 15:32:09 33° 292° (WNW) 15:36:22 437.325
AO-7 06 Dec 15:38:53 15:46:21 37° 262° (W) 15:53:55 29.400- 29.500
ISS 06 Dec 15:42:53 15:46:05 52° 140° (SE) 15:49:19 145.825
AUBIESAT-1 06 Dec 15:48:36 15:52:18 24° 299° (WNW) 15:55:55 437.475
Cosmos 2491 06 Dec 15:50:33 15:55:22 16° 59° (ENE) 16:00:09 435.465 / 435.565
GOMX 1 06 Dec 15:55:46 15:59:25 23° 65° (ENE) 16:03:15 467.674
AIST 2 06 Dec 15:58:07 16:02:05 38° 51° (NE) 16:06:02 435.215
RS-15 06 Dec 16:00:10 16:12:39 80° 56° (NE) 16:24:40 29.354- 29.394
MOZHAYETS 4 06 Dec 16:01:29 16:05:55 52° 287° (WNW) 16:10:19
M-CUBED/EXP-1 PRIME 06 Dec 16:01:55 16:04:49 17° 303° (WNW) 16:07:41 437.505
DOVE 4 06 Dec 16:05:14 16:07:36 14° 60° (ENE) 16:10:02 437.250
CUBESAT XI-V 06 Dec 16:05:45 16:09:38 25° 95° (E) 16:13:31 437.345
CUTE-I 06 Dec 16:08:21 16:12:19 21° 63° (ENE) 16:16:16 437.470
BRITE-PL 06 Dec 16:21:46 16:26:03 83° 260° (W) 16:30:41 437.365/2234.400
NOAA 18 06 Dec 16:22:00 16:25:54 20° 61° (ENE) 16:29:47 137.9125
KKS-1 06 Dec 16:27:55 16:32:23 66° 286° (WNW) 16:36:49 437.445
NOAA 15 06 Dec 16:28:35 16:33:15 34° 67° (ENE) 16:37:57 137.62
STARS 06 Dec 16:32:25 16:36:50 65° 101° (E) 16:41:11 437.465
Cubesat XI-IV 06 Dec 16:33:26 16:38:14 34° 67° (ENE) 16:43:03 437.490
HORYU 2 06 Dec 16:40:10 16:44:36 61° 259° (WSW) 16:49:03 437.375
O/OREOS (USA 219) 06 Dec 16:55:17 16:58:43 21° 304° (NW) 17:02:09 437.305
LilacSat-2 06 Dec 17:14:03 17:17:55 85° 73° (ENE) 17:21:46 437.200
CINEMA 3 06 Dec 17:18:28 17:21:55 19° 64° (ENE) 17:25:25 145.822/145.860
ISS 06 Dec 17:19:55 17:22:45 26° 338° (NNW) 17:25:35 145.825
HO-68 06 Dec 17:26:35 17:32:25 28° 59° (ENE) 17:38:16 435.675
GOMX 1 06 Dec 17:33:00 17:37:14 38° 264° (W) 17:41:47 467.674
CANX-2 06 Dec 17:35:22 17:37:54 16° 65° (ENE) 17:40:27 2200.000
AIST 2 06 Dec 17:37:05 17:40:20 22° 248° (WSW) 17:43:34 435.215
DOVE 4 06 Dec 17:39:44 17:44:31 78° 258° (WSW) 17:49:38 437.250
CUBESAT XI-V 06 Dec 17:42:52 17:47:01 32° 291° (WNW) 17:51:10 437.345
Cosmos 2491 06 Dec 17:45:06 17:53:52 76° 81° (E) 18:02:34 435.465 / 435.565
CUTE-I 06 Dec 17:46:43 17:51:57 53° 260° (W) 17:57:13 437.470
SEEDS 06 Dec 17:59:24 18:02:04 17° 66° (ENE) 18:04:44 437.485
NOAA 18 06 Dec 18:00:33 18:06:02 62° 258° (WSW) 18:11:34 137.9125
NOAA 15 06 Dec 18:08:28 18:13:01 30° 264° (W) 18:17:37 137.62
COMPASS 1 06 Dec 18:09:11 18:11:23 14° 64° (ENE) 18:13:36 437.405
STARS 06 Dec 18:10:34 18:12:38 13° 298° (WNW) 18:14:41 437.465
YUBILEINY 06 Dec 18:12:10 18:20:21 48° 88° (E) 18:28:36 435.215
Cubesat XI-IV 06 Dec 18:13:32 18:18:17 31° 264° (W) 18:23:03 437.490
RS-15 06 Dec 18:14:00 18:23:49 30° 258° (WSW) 18:33:24 29.354- 29.394
UWE-3 06 Dec 18:15:53 18:17:29 12° 61° (ENE) 18:19:03 435.000/436.395/437.385
STRAND 1 06 Dec 18:19:32 18:23:29 22° 94° (E) 18:27:25 437.568
AIST 1 06 Dec 18:20:36 18:22:47 14° 84° (E) 18:24:58
CUTE 1.7 + AOD 2 06 Dec 18:50:57 18:55:10 88° 257° (WSW) 18:59:24 437.475
SO-50 06 Dec 18:52:32 18:56:29 26° 113° (ESE) 19:00:24 436.795
CINEMA 3 06 Dec 18:53:47 18:58:36 53° 261° (W) 19:03:31 145.822/145.860
ZACube-1 06 Dec 18:53:59 18:56:58 18° 65° (ENE) 18:59:56 437.345
Cosmos 2504 06 Dec 18:55:54 19:03:41 45° 87° (E) 19:11:53 435.465 / 435.565
ISS 06 Dec 18:58:12 19:00:06 14° 358° (N) 19:02:00 145.825
FUNcube-1 06 Dec 19:01:06 19:04:16 19° 66° (ENE) 19:07:24 145.935
CUSAT 1 06 Dec 19:06:11 19:09:02 20° 76° (ENE) 19:12:24 437.405
CUBEBUG 2 06 Dec 19:07:31 19:12:11 59° 74° (ENE) 19:16:50 437.445
CANX-2 06 Dec 19:09:20 19:13:23 46° 261° (W) 19:17:27 2200.000
AAUSAT CUBESAT 2 06 Dec 19:11:33 19:15:33 53° 74° (ENE) 19:19:33 437.432
HO-68 06 Dec 19:12:36 19:19:39 61° 258° (WSW) 19:26:46 435.675
PCSat 06 Dec 19:29:23 19:34:26 37° 52° (NE) 19:39:26 145.827
Oscar 11 06 Dec 19:30:01 19:33:54 34° 71° (ENE) 19:37:48 145.826/435.025
SEEDS 06 Dec 19:33:28 19:37:25 42° 262° (W) 19:41:23 437.485
COMPASS 1 06 Dec 19:42:30 19:46:30 49° 261° (W) 19:50:32 437.405
Cosmos 2491 06 Dec 19:43:29 19:49:42 22° 281° (W) 19:55:55 435.465 / 435.565
UWE-3 06 Dec 19:48:36 19:53:17 80° 258° (WSW) 19:57:55 435.000/436.395/437.385
AIST 1 06 Dec 19:55:43 19:59:53 48° 281° (WNW) 20:04:07
STRAND 1 06 Dec 19:58:01 20:02:50 43° 290° (WNW) 20:07:38 437.568
DANDE 06 Dec 19:59:55 20:01:14 12° 75° (ENE) 20:02:38 436.750
DELFI C3 06 Dec 20:04:50 20:08:10 27° 70° (ENE) 20:11:32 145.870
YUBILEINY 06 Dec 20:09:23 20:17:17 38° 289° (WNW) 20:25:18 435.215
HUMSAT D 06 Dec 20:15:33 20:18:42 21° 67° (ENE) 20:21:50 437.325/437.525
PRISM 06 Dec 20:16:23 20:19:35 21° 95° (E) 20:22:46 437.425
ZACube-1 06 Dec 20:28:28 20:32:53 48° 261° (W) 20:37:15 437.345
SO-50 06 Dec 20:32:18 20:36:47 39° 310° (NW) 20:41:13 436.795
ISS 06 Dec 20:34:54 20:37:31 21° 18° (NNE) 20:40:09 145.825
FUNcube-1 06 Dec 20:35:51 20:40:11 43° 262° (W) 20:44:28 145.935
CUBEBUG 2 06 Dec 20:46:28 20:49:07 15° 269° (W) 20:51:46 437.445
CUSAT 1 06 Dec 20:47:29 20:50:49 29° 263° (W) 20:55:00 437.405
Cosmos 2504 06 Dec 20:49:18 20:57:05 41° 288° (WNW) 21:05:20 435.465 / 435.565
AAUSAT CUBESAT 2 06 Dec 20:49:41 20:51:20 12° 270° (W) 20:52:59 437.432
UNISAT 6 06 Dec 21:02:34 21:05:13 16° 91° (E) 21:07:50 437.425
Oscar 11 06 Dec 21:06:50 21:10:07 21° 266° (W) 21:13:23 145.826/435.025
PCSat 06 Dec 21:12:56 21:17:44 33° 250° (WSW) 21:22:30 145.827
TIGRISAT 06 Dec 21:31:22 21:35:15 30° 96° (E) 21:39:01 435.000
ANTELSAT 06 Dec 21:32:58 21:36:57 33° 97° (E) 21:40:49 437.575/2403.000
DELFI C3 06 Dec 21:39:56 21:42:58 21° 266° (W) 21:46:01 145.870
ESTCUBE 1 06 Dec 21:40:29 21:44:13 27° 68° (ENE) 21:47:58 437.505/2401.250
DANDE 06 Dec 21:41:31 21:43:49 21° 264° (W) 21:46:29 436.750
AISAT 06 Dec 21:45:24 21:47:40 14° 62° (ENE) 21:49:57 437.250
HUMSAT D 06 Dec 21:50:17 21:54:06 33° 263° (W) 21:57:54 437.325/437.525
PRISM 06 Dec 21:51:13 21:54:54 32° 291° (WNW) 21:58:37 437.425
CUBEBUG 1 06 Dec 22:07:30 22:11:19 31° 69° (ENE) 22:15:12 437.445
ISS 06 Dec 22:11:02 22:14:21 83° 218° (SW) 22:17:40 145.825
VELOX 1 06 Dec 22:20:25 22:24:14 29° 68° (ENE) 22:28:05 145.980
DX 1 06 Dec 22:31:37 22:34:55 21° 66° (ENE) 22:38:13 434.975-435.025
UKube-1 06 Dec 22:37:29 22:40:28 18° 65° (ENE) 22:43:27 .
UNISAT 6 06 Dec 22:37:59 22:42:12 46° 288° (WNW) 22:46:19 437.425
50 SAT 06 Dec 22:40:16 22:43:27 33° 72° (ENE) 22:46:39 437.505
SPROUT 06 Dec 22:47:16 22:51:12 36° 70° (ENE) 22:55:09 437.525
GONETS M04 06 Dec 22:52:45 22:58:33 20° 78° (ENE) 23:04:18
NANOSAT C BR1 06 Dec 23:04:36 23:08:27 33° 97° (E) 23:12:16 145.865
TIGRISAT 06 Dec 23:08:14 23:11:48 24° 293° (WNW) 23:15:17 435.000
ANTELSAT 06 Dec 23:10:03 23:13:27 22° 294° (WNW) 23:16:48 437.575/2403.000
QB50P2 06 Dec 23:11:07 23:15:13 46° 99° (E) 23:19:16 145.880/145.840
POLYITAN 1 06 Dec 23:11:39 23:15:43 43° 99° (E) 23:19:44 437.675
ESTCUBE 1 06 Dec 23:17:03 23:20:56 29° 264° (W) 23:24:50 437.505/2401.250
AISAT 06 Dec 23:19:15 23:23:37 61° 259° (W) 23:28:02 437.250
QB50P1 06 Dec 23:24:19 23:28:32 61° 101° (ESE) 23:32:41 145.935-145.965
DUCHIFAT 1 06 Dec 23:26:09 23:30:18 54° 99° (E) 23:34:24 145.980
JAS-2 06 Dec 23:27:06 23:32:19 86° 105° (ESE) 23:37:48 435.910
CUBEBUG 1 06 Dec 23:44:05 23:47:37 24° 265° (W) 23:51:11 437.445
Cosmos 2499 06 Dec 23:45:27 23:53:35 50° 89° (E) 00:02:03 435.465 / 435.565
POPSAT HIP 1 06 Dec 23:45:55 23:50:10 77° 285° (WNW) 23:54:22 437.405
O/OREOS (USA 219) 06 Dec 23:48:12 23:48:48 10° 49° (NE) 23:49:25 437.305
PHONESAT 2.4 06 Dec 23:49:46 23:52:01 24° 158° (SSE) 23:54:16 2401.200-2431.200
VELOX 1 06 Dec 23:56:59 00:00:39 26° 265° (W) 00:04:22 145.980
TISAT 1 07 Dec 00:05:53 00:09:54 43° 72° (ENE) 00:13:57 437.305
DX 1 07 Dec 00:06:53 00:10:52 35° 262° (W) 00:14:54 434.975-435.025
UKube-1 07 Dec 00:12:07 00:16:11 41° 261° (W) 00:20:17 .
50 SAT 07 Dec 00:15:02 00:16:52 14° 267° (W) 00:18:42 437.505
BUGSAT 1 07 Dec 00:19:30 00:23:43 83° 103° (ESE) 00:27:51 437.445
SPROUT 07 Dec 00:24:03 00:27:13 20° 267° (W) 00:30:24 437.525
SWISSCUBE 07 Dec 00:25:58 00:29:15 19° 63° (ENE) 00:32:31 437.505
BEESAT 07 Dec 00:29:58 00:33:11 18° 63° (ENE) 00:36:26 436.000
Oscar 19 07 Dec 00:32:58 00:37:20 27° 95° (E) 00:41:40 437.125/150
AO-85 07 Dec 00:35:59 00:39:49 23° 113° (ESE) 00:43:28 145.980
Gurwin Techsat 1B 07 Dec 00:37:22 00:40:21 15° 90° (E) 00:43:19 435.225
NANOSAT C BR1 07 Dec 00:40:46 00:43:58 21° 293° (WNW) 00:47:08 145.865
GONETS M04 07 Dec 00:45:29 00:54:13 83° 278° (W) 01:02:59
QB50P2 07 Dec 00:48:01 00:50:38 16° 296° (WNW) 00:53:14 145.880/145.840
POLYITAN 1 07 Dec 00:48:26 00:51:09 17° 295° (WNW) 00:53:51 437.675
ITUPSAT 1 07 Dec 00:57:03 01:01:17 32° 68° (ENE) 01:05:31 437.325
AUBIESAT-1 07 Dec 00:59:08 01:03:06 43° 66° (ENE) 01:07:19 437.475
QB50P1 07 Dec 01:01:55 01:03:46 13° 298° (WNW) 01:05:36 145.935-145.965
DUCHIFAT 1 07 Dec 01:03:21 01:05:31 14° 297° (WNW) 01:07:41 145.980
M-CUBED/EXP-1 PRIME 07 Dec 01:12:01 01:16:06 75° 71° (ENE) 01:20:34 437.505
JAS-2 07 Dec 01:14:50 01:16:44 12° 301° (WNW) 01:18:40 435.910
PHONESAT 2.4 07 Dec 01:24:23 01:27:01 66° 174° (S) 01:29:39 2401.200-2431.200
O/OREOS (USA 219) 07 Dec 01:24:27 01:28:58 84° 69° (ENE) 01:33:25 437.305
MOZHAYETS 4 07 Dec 01:28:05 01:30:52 16° 64° (ENE) 01:33:39
Cosmos 2499 07 Dec 01:39:04 01:46:55 38° 289° (WNW) 01:55:03 435.465 / 435.565
TISAT 1 07 Dec 01:43:06 01:45:44 16° 268° (W) 01:48:24 437.305
AO-7 07 Dec 01:49:24 01:53:22 14° 88° (E) 01:57:18 29.400- 29.500
KKS-1 07 Dec 01:52:18 01:54:09 12° 61° (ENE) 01:55:59 437.445
SWISSCUBE 07 Dec 02:02:01 02:06:38 50° 260° (W) 02:11:18 437.505
BEESAT 07 Dec 02:05:56 02:10:34 51° 260° (W) 02:15:14 436.000
Oscar 19 07 Dec 02:11:56 02:16:42 38° 291° (WNW) 02:21:28 437.125/150
AO-85 07 Dec 02:15:21 02:20:03 45° 307° (NW) 02:24:25 145.980
Gurwin Techsat 1B 07 Dec 02:15:29 02:20:47 68° 287° (WNW) 02:26:03 435.225
AUBIESAT-1 07 Dec 02:34:56 02:37:44 17° 264° (W) 02:40:40 437.475
ITUPSAT 1 07 Dec 02:35:02 02:39:06 27° 264° (W) 02:43:10 437.325
ITAMSAT 1 07 Dec 02:42:11 02:47:13 49° 100° (E) 02:52:12 435.822/435.867
GONETS M04 07 Dec 02:47:10 02:52:30 17° 300° (WNW) 02:57:52
PHONESAT 2.4 07 Dec 02:59:34 03:02:10 54° 190° (S) 03:04:45 2401.200-2431.200
MOZHAYETS 4 07 Dec 03:03:05 03:07:35 54° 260° (W) 03:12:05
CUBESAT XI-V 07 Dec 03:09:20 03:13:04 25° 67° (ENE) 03:16:50 437.345
SO-50 07 Dec 03:23:20 03:27:09 26° 45° (NE) 03:30:55 436.795
KKS-1 07 Dec 03:25:39 03:30:06 71° 258° (WSW) 03:34:36 437.445
STARS 07 Dec 03:28:46 03:33:06 58° 73° (ENE) 03:37:29 437.465
AO-7 07 Dec 03:38:59 03:47:25 76° 107° (ESE) 03:55:47 29.400- 29.500
YUBILEINY 07 Dec 04:22:23 04:29:13 24° 65° (ENE) 04:36:02 435.215
ITAMSAT 1 07 Dec 04:22:28 04:26:19 22° 297° (WNW) 04:30:10 435.822/435.867
BEESAT 3 07 Dec 04:24:16 04:28:06 64° 120° (ESE) 04:32:01 437.485
BRITE-PL 07 Dec 04:25:24 04:30:25 35° 96° (E) 04:35:35 437.365/2234.400
HORYU 2 07 Dec 04:31:24 04:34:59 24° 95° (E) 04:38:33 437.375
PHONESAT 2.4 07 Dec 04:35:17 04:37:03 16° 206° (SSW) 04:38:49 2401.200-2431.200
NOAA 15 07 Dec 04:45:24 04:47:20 12° 89° (E) 04:49:17 137.62
CUBESAT XI-V 07 Dec 04:46:13 04:50:19 32° 264° (W) 04:54:26 437.345
Cosmos 2504 07 Dec 04:49:38 04:55:03 17° 59° (ENE) 05:00:17 435.465 / 435.565
Cubesat XI-IV 07 Dec 04:52:13 04:54:28 13° 89° (E) 04:56:42 437.490
Cosmos 2491 07 Dec 04:54:07 04:59:08 17° 76° (ENE) 05:04:07 435.465 / 435.565
BEESAT 2 07 Dec 04:55:45 04:59:38 63° 119° (ESE) 05:03:35 435.950
SO-50 07 Dec 05:03:31 05:07:44 39° 244° (WSW) 05:11:52 436.795
STARS 07 Dec 05:07:41 05:09:48 13° 269° (W) 05:11:56 437.465
AO-7 07 Dec 05:32:48 05:39:23 27° 306° (NW) 05:45:59 29.400- 29.500
GOMX 1 07 Dec 05:33:32 05:39:01 66° 101° (E) 05:44:27 467.674
STRAND 1 07 Dec 05:35:19 05:39:53 33° 68° (ENE) 05:44:27 437.568
DOVE 4 07 Dec 05:38:45 05:43:28 32° 95° (E) 05:48:03 437.250
AIST 1 07 Dec 06:02:24 06:06:33 39° 77° (ENE) 06:10:41
CUTE-I 07 Dec 06:03:27 06:08:44 61° 101° (ESE) 06:13:58 437.470
BEESAT 3 07 Dec 06:03:51 06:06:09 15° 318° (NW) 06:08:28 437.485
BRITE-PL 07 Dec 06:03:58 06:08:46 33° 291° (WNW) 06:13:45 437.365/2234.400
HORYU 2 07 Dec 06:07:37 06:11:32 31° 291° (WNW) 06:15:26 437.375
YUBILEINY 07 Dec 06:18:08 06:26:57 76° 266° (W) 06:35:45 435.215
LilacSat-2 07 Dec 06:21:23 06:25:07 62° 285° (WNW) 06:28:50 437.200
NOAA 15 07 Dec 06:22:26 06:27:44 83° 285° (WNW) 06:33:01 137.62
NOAA 18 07 Dec 06:22:26 06:27:54 56° 101° (E) 06:33:17 137.9125
RS-15 07 Dec 06:22:51 06:33:56 52° 110° (ESE) 06:45:29 29.354- 29.394
Cubesat XI-IV 07 Dec 06:29:47 06:35:09 80° 286° (WNW) 06:40:28 437.490
BEESAT 2 07 Dec 06:35:26 06:37:50 15° 318° (NW) 06:40:15 435.950
CUTE 1.7 + AOD 2 07 Dec 06:36:50 06:39:24 16° 92° (E) 06:41:56 437.475
HO-68 07 Dec 06:40:39 06:46:36 27° 94° (E) 06:52:29 435.675
Cosmos 2504 07 Dec 06:41:09 06:50:01 80° 82° (E) 06:58:19 435.465 / 435.565
Cosmos 2491 07 Dec 06:45:48 06:54:36 86° 96° (E) 07:03:23 435.465 / 435.565
CINEMA 3 07 Dec 06:48:45 06:53:14 38° 96° (E) 06:57:30 145.822/145.860
CANX-2 07 Dec 06:54:13 06:57:53 28° 96° (E) 07:01:32 2200.000
CUBEBUG 2 07 Dec 07:00:53 07:02:14 11° 89° (E) 07:03:34 437.445
PRISM 07 Dec 07:06:33 07:09:04 16° 64° (ENE) 07:11:36 437.425
GOMX 1 07 Dec 07:12:51 07:16:30 19° 297° (WNW) 07:20:10 467.674
STRAND 1 07 Dec 07:14:33 07:19:02 30° 264° (W) 07:23:31 437.568
DOVE 4 07 Dec 07:16:23 07:21:04 33° 292° (WNW) 07:25:38 437.250
SEEDS 07 Dec 07:17:04 07:20:44 29° 96° (E) 07:24:24 437.485
COMPASS 1 07 Dec 07:25:19 07:28:44 24° 95° (E) 07:32:07 437.405
AIST 2 07 Dec 07:33:23 07:37:28 75° 122° (ESE) 07:41:38 435.215
UWE-3 07 Dec 07:39:14 07:42:20 19° 93° (E) 07:45:22 435.000/436.395/437.385
AIST 1 07 Dec 07:40:52 07:43:49 18° 274° (W) 07:46:43
CUTE-I 07 Dec 07:44:41 07:48:17 19° 299° (WNW) 07:51:51 437.470
UNISAT 6 07 Dec 08:01:29 08:04:25 17° 64° (ENE) 08:07:20 437.425
NOAA 18 07 Dec 08:04:01 08:08:07 22° 298° (WNW) 08:12:10 137.9125
NOAA 15 07 Dec 08:04:56 08:06:39 12° 303° (WNW) 08:08:23 137.62
CUTE 1.7 + AOD 2 07 Dec 08:11:26 08:15:26 44° 288° (WNW) 08:19:26 437.475
CUSAT 1 07 Dec 08:11:28 08:12:52 13° 94° (E) 08:14:12 437.405
Cubesat XI-IV 07 Dec 08:12:46 08:14:19 11° 303° (WNW) 08:15:53 437.490
ZACube-1 07 Dec 08:16:57 08:20:41 30° 96° (E) 08:24:21 437.345
YUBILEINY 07 Dec 08:18:06 08:22:08 14° 286° (WNW) 08:26:12 435.215
FUNcube-1 07 Dec 08:23:51 08:27:39 33° 96° (E) 08:31:24 145.935
CINEMA 3 07 Dec 08:26:21 08:30:06 23° 294° (WNW) 08:33:42 145.822/145.860
HO-68 07 Dec 08:27:38 08:34:40 59° 292° (WNW) 08:41:41 435.675
AAUSAT CUBESAT 2 07 Dec 08:28:37 08:32:47 81° 282° (WNW) 08:36:55 437.432
TIGRISAT 07 Dec 08:29:46 08:33:47 29° 69° (ENE) 08:37:47 435.000
CANX-2 07 Dec 08:30:11 08:33:37 24° 292° (WNW) 08:37:02 2200.000
ANTELSAT 07 Dec 08:31:27 08:35:35 32° 69° (ENE) 08:39:42 437.575/2403.000
RS-15 07 Dec 08:34:52 08:46:26 54° 314° (NW) 08:58:30 29.354- 29.394
CUBEBUG 2 07 Dec 08:34:58 08:39:19 62° 286° (WNW) 08:43:30 437.445
Cosmos 2504 07 Dec 08:36:13 08:42:15 21° 282° (WNW) 08:48:06 435.465 / 435.565
PRISM 07 Dec 08:40:09 08:44:01 42° 261° (W) 08:47:56 437.425
Cosmos 2491 07 Dec 08:46:27 08:52:36 21° 297° (WNW) 08:58:47 435.465 / 435.565
Oscar 11 07 Dec 08:52:28 08:56:46 69° 102° (ESE) 09:01:02 145.826/435.025
SEEDS 07 Dec 08:52:58 08:56:17 23° 292° (WNW) 08:59:37 437.485
COMPASS 1 07 Dec 09:00:42 09:04:14 27° 291° (WNW) 09:07:46 437.405
AO-85 07 Dec 09:07:12 09:10:03 18° 43° (NE) 09:12:49 145.980
DANDE 07 Dec 09:07:58 09:11:30 23° 96° (E) 09:14:24 436.750
AIST 2 07 Dec 09:14:08 09:16:28 15° 320° (NW) 09:18:50 435.215
UWE-3 07 Dec 09:14:59 09:18:55 35° 289° (WNW) 09:22:44 435.000/436.395/437.385
DELFI C3 07 Dec 09:15:54 09:19:43 43° 99° (E) 09:23:32 145.870
HUMSAT D 07 Dec 09:33:07 09:36:52 35° 97° (E) 09:40:35 437.325/437.525
UNISAT 6 07 Dec 09:36:05 09:40:41 54° 260° (W) 09:45:15 437.425
Cosmos 2499 07 Dec 09:38:13 09:43:46 18° 60° (ENE) 09:49:03 435.465 / 435.565
JAS-2 07 Dec 09:39:19 09:45:07 38° 69° (ENE) 09:50:21 435.910
CUSAT 1 07 Dec 09:52:37 09:54:37 16° 284° (WNW) 09:56:28 437.405
ZACube-1 07 Dec 09:53:31 09:56:49 22° 293° (WNW) 10:00:04 437.345
NANOSAT C BR1 07 Dec 09:56:50 10:00:23 26° 68° (ENE) 10:03:56 145.865
FUNcube-1 07 Dec 10:00:33 10:03:42 21° 293° (WNW) 10:06:47 145.935
QB50P2 07 Dec 10:03:38 10:07:32 35° 70° (ENE) 10:11:27 145.880/145.840
POLYITAN 1 07 Dec 10:04:10 10:08:02 34° 70° (ENE) 10:11:55 437.675
TIGRISAT 07 Dec 10:06:20 10:10:24 29° 264° (W) 10:14:27 435.000
ANTELSAT 07 Dec 10:08:20 10:12:16 26° 265° (W) 10:16:11 437.575/2403.000
PCSat 07 Dec 10:11:30 10:16:12 31° 109° (ESE) 10:20:56 145.827
QB50P1 07 Dec 10:16:30 10:20:34 45° 72° (ENE) 10:24:41 145.935-145.965
DUCHIFAT 1 07 Dec 10:17:49 10:21:47 40° 71° (ENE) 10:25:47 145.980
HO-68 07 Dec 10:18:33 10:20:54 12° 312° (NW) 10:23:16 435.675
Oscar 11 07 Dec 10:30:49 10:32:19 12° 298° (WNW) 10:33:48 145.826/435.025
POPSAT HIP 1 07 Dec 10:37:55 10:42:12 79° 75° (ENE) 10:46:30 437.405
AO-85 07 Dec 10:46:55 10:50:42 44° 242° (WSW) 10:54:22 145.980
DANDE 07 Dec 10:50:46 10:54:05 21° 283° (WNW) 10:56:50 436.750
DELFI C3 07 Dec 10:51:53 10:54:10 15° 295° (WNW) 10:56:27 145.870
RS-15 07 Dec 10:53:08 11:02:42 25° 346° (NNW) 11:12:27 29.354- 29.394
GONETS M04 07 Dec 10:55:39 11:04:06 51° 75° (ENE) 11:12:31
ESTCUBE 1 07 Dec 11:08:28 11:12:55 56° 100° (E) 11:17:22 437.505/2401.250
BUGSAT 1 07 Dec 11:08:45 11:12:54 57° 73° (ENE) 11:17:05 437.445
HUMSAT D 07 Dec 11:09:22 11:12:14 19° 293° (WNW) 11:15:05 437.325/437.525
AISAT 07 Dec 11:09:35 11:13:15 24° 95° (E) 11:16:54 437.250
